Radiation Dose at Monitoring Post of Fukushima Daini Nuclear Power Station
Date,Time,MP-1(microSv/h),MP-2(microSv/h),MP-3(microSv/h),MP-4(microSv/h),MP-5(microSv/h),MP-6(microSv/h),MP-7(microSv/h),Wind Direction,Wind Velocity(m/s),Rain
2020/02/14,00:00,0.182,0.167,0.278,0.259,0.254,0.141,0.086,northwest,2.3,No
2020/02/14,00:10,0.183,0.167,0.278,0.260,0.255,0.141,0.086,northwest,4.1,No
2020/02/14,00:20,0.183,0.168,0.277,0.259,0.256,0.141,0.086,northwest,5.0,No
2020/02/14,00:30,0.183,0.167,0.278,0.257,0.254,0.141,0.086,northwest,4.2,No
2020/02/14,00:40,0.182,0.167,0.279,0.257,0.254,0.140,0.086,northwest,3.8,No
2020/02/14,00:50,0.181,0.168,0.278,0.259,0.254,0.141,0.086,northwest,2.8,No
2020/02/14,01:00,0.181,0.166,0.278,0.259,0.255,0.140,0.086,north,2.3,No
2020/02/14,01:10,0.183,0.167,0.279,0.257,0.255,0.141,0.086,north,2.7,No
2020/02/14,01:20,0.182,0.166,0.278,0.260,0.255,0.140,0.085,north-northwest,3.7,No
2020/02/14,01:30,0.182,0.167,0.278,0.258,0.255,0.141,0.086,northwest,5.8,No
2020/02/14,01:40,0.182,0.167,0.280,0.258,0.256,0.141,0.086,northwest,7.3,No
2020/02/14,01:50,0.182,0.167,0.278,0.260,0.254,0.141,0.086,northwest,6.9,No
2020/02/14,02:00,0.182,0.167,0.279,0.260,0.254,0.141,0.086,northwest,5.8,No
2020/02/14,02:10,0.183,0.167,0.278,0.259,0.255,0.142,0.086,northwest,5.9,No
2020/02/14,02:20,0.184,0.167,0.278,0.260,0.253,0.142,0.087,northwest,5.5,No
2020/02/14,02:30,0.183,0.167,0.278,0.259,0.253,0.140,0.087,northwest,5.5,No
2020/02/14,02:40,0.182,0.168,0.279,0.258,0.255,0.141,0.086,northwest,6.1,No
2020/02/14,02:50,0.182,0.167,0.278,0.259,0.255,0.141,0.087,northwest,8.4,No
2020/02/14,03:00,0.181,0.167,0.278,0.259,0.254,0.141,0.086,northwest,10.4,No
2020/02/14,03:10,0.183,0.167,0.279,0.259,0.255,0.141,0.086,northwest,10.0,No
2020/02/14,03:20,0.183,0.167,0.278,0.258,0.254,0.142,0.087,northwest,9.7,No
2020/02/14,03:30,0.183,0.167,0.279,0.258,0.253,0.141,0.086,northwest,9.2,No
2020/02/14,03:40,0.182,0.166,0.280,0.259,0.254,0.141,0.086,northwest,9.8,No
2020/02/14,03:50,0.183,0.167,0.279,0.259,0.255,0.141,0.086,northwest,9.0,No
2020/02/14,04:00,0.183,0.167,0.279,0.258,0.253,0.140,0.086,northwest,7.6,No
2020/02/14,04:10,0.183,0.166,0.279,0.260,0.255,0.141,0.086,northwest,7.9,No
2020/02/14,04:20,0.183,0.168,0.279,0.259,0.255,0.141,0.085,northwest,6.8,No
2020/02/14,04:30,0.183,0.168,0.277,0.257,0.255,0.141,0.086,northwest,5.4,No
2020/02/14,04:40,0.183,0.168,0.280,0.260,0.255,0.141,0.086,northwest,3.9,No
2020/02/14,04:50,0.182,0.167,0.279,0.259,0.253,0.142,0.086,north-northwest,4.1,No
2020/02/14,05:00,0.182,0.167,0.278,0.259,0.254,0.141,0.086,north-northwest,2.2,No
2020/02/14,05:10,0.183,0.167,0.280,0.259,0.255,0.141,0.087,west-northwest,2.1,No
2020/02/14,05:20,0.183,0.166,0.279,0.258,0.255,0.141,0.087,west-northwest,2.1,No
2020/02/14,05:30,0.183,0.168,0.278,0.258,0.254,0.140,0.086,west,0.9,No
2020/02/14,05:40,0.183,0.168,0.279,0.258,0.254,0.141,0.086,west-southwest,1.4,No
2020/02/14,05:50,0.184,0.167,0.279,0.257,0.254,0.140,0.086,west,2.1,No
2020/02/14,06:00,0.184,0.167,0.279,0.258,0.254,0.140,0.086,west,4.6,No
2020/02/14,06:10,0.182,0.167,0.278,0.260,0.254,0.141,0.086,west,6.1,No
2020/02/14,06:20,0.182,0.168,0.279,0.258,0.254,0.141,0.086,west,6.2,No
2020/02/14,06:30,0.183,0.167,0.278,0.259,0.252,0.141,0.086,west,6.2,No
2020/02/14,06:40,0.182,0.167,0.278,0.257,0.253,0.141,0.086,west,6.7,No
2020/02/14,06:50,0.183,0.167,0.279,0.258,0.254,0.140,0.086,west,6.4,No
2020/02/14,07:00,0.183,0.167,0.278,0.257,0.254,0.140,0.086,west-northwest,4.6,No
2020/02/14,07:10,0.182,0.167,0.277,0.259,0.255,0.141,0.087,west-northwest,3.7,No
2020/02/14,07:20,0.182,0.167,0.278,0.258,0.255,0.141,0.087,west,3.3,No
2020/02/14,07:30,0.182,0.168,0.277,0.257,0.254,0.140,0.086,west,3.6,No
2020/02/14,07:40,0.184,0.166,0.278,0.258,0.254,0.141,0.086,west,3.0,No
2020/02/14,07:50,0.183,0.168,0.279,0.258,0.254,0.141,0.086,west-northwest,4.5,No
2020/02/14,08:00,0.183,0.166,0.277,0.256,0.252,0.141,0.086,west,4.2,No
2020/02/14,08:10,0.182,0.167,0.279,0.257,0.254,0.140,0.085,west,4.1,No
2020/02/14,08:20,0.182,0.167,0.279,0.257,0.253,0.141,0.086,west-northwest,3.0,No
2020/02/14,08:30,0.184,0.166,0.277,0.259,0.255,0.139,0.086,northwest,3.1,No
2020/02/14,08:40,0.183,0.167,0.277,0.257,0.254,0.141,0.086,north-northwest,2.3,No
2020/02/14,08:50,0.182,0.168,0.279,0.259,0.254,0.141,0.086,north-northwest,2.3,No
2020/02/14,09:00,0.183,0.167,0.279,0.256,0.254,0.140,0.086,north-northeast,1.7,No
2020/02/14,09:10,0.182,0.167,0.278,0.258,0.253,0.140,0.086,east,3.7,No
2020/02/14,09:20,0.183,0.166,0.280,0.257,0.255,0.139,0.086,east-northeast,3.1,No
2020/02/14,09:30,0.182,0.166,0.278,0.260,0.253,0.140,0.087,east-northeast,2.9,No
2020/02/14,09:40,0.181,0.168,0.278,0.258,0.255,0.139,0.086,east-northeast,2.3,No
2020/02/14,09:50,0.182,0.166,0.277,0.257,0.254,0.141,0.087,northeast,2.2,No
2020/02/14,10:00,0.182,0.167,0.280,0.258,0.254,0.140,0.087,east-northeast,1.6,No
2020/02/14,10:10,0.182,0.166,0.279,0.258,0.252,0.140,0.086,northeast,1.7,No
2020/02/14,10:20,0.182,0.168,0.278,0.258,0.255,0.140,0.086,east-northeast,1.3,No
2020/02/14,10:30,0.181,0.166,0.277,0.256,0.253,0.141,0.086,east-northeast,1.6,No
2020/02/14,10:40,0.183,0.169,0.279,0.259,0.253,0.141,0.087,east,1.6,No
2020/02/14,10:50,0.181,0.166,0.279,0.258,0.255,0.141,0.087,east,2.4,No
2020/02/14,11:00,0.182,0.168,0.279,0.259,0.252,0.141,0.087,east,2.6,No
2020/02/14,11:10,0.181,0.166,0.279,0.257,0.255,0.141,0.086,east-southeast,1.8,No
2020/02/14,11:20,0.180,0.168,0.277,0.258,0.254,0.140,0.086,east-southeast,2.5,No
2020/02/14,11:30,0.182,0.167,0.280,0.259,0.255,0.141,0.086,east-southeast,1.3,No
2020/02/14,11:40,0.181,0.167,0.277,0.257,0.254,0.141,0.086,east-southeast,1.4,No
2020/02/14,11:50,0.183,0.165,0.279,0.260,0.255,0.141,0.086,south-southeast,1.9,No
2020/02/14,12:00,0.182,0.168,0.278,0.258,0.255,0.142,0.086,south,3.8,No
2020/02/14,12:10,0.184,0.167,0.279,0.260,0.254,0.140,0.086,south-southeast,4.7,No
2020/02/14,12:20,0.182,0.167,0.276,0.258,0.254,0.141,0.086,south-southeast,4.3,No
2020/02/14,12:30,0.183,0.167,0.279,0.258,0.254,0.141,0.087,south-southeast,4.5,No
2020/02/14,12:40,0.182,0.167,0.278,0.257,0.255,0.141,0.087,south-southeast,3.8,No
2020/02/14,12:50,0.182,0.167,0.279,0.259,0.253,0.140,0.087,southeast,2.3,No
2020/02/14,13:00,0.182,0.168,0.276,0.258,0.255,0.142,0.086,south,2.9,No
2020/02/14,13:10,0.181,0.167,0.279,0.261,0.253,0.140,0.087,south,3.9,No
2020/02/14,13:20,0.181,0.168,0.277,0.258,0.256,0.141,0.086,south-southeast,3.5,No
2020/02/14,13:30,0.182,0.166,0.280,0.260,0.253,0.141,0.086,south-southeast,3.9,No
2020/02/14,13:40,0.181,0.167,0.277,0.259,0.256,0.141,0.087,southeast,1.5,No
2020/02/14,13:50,0.181,0.167,0.279,0.259,0.253,0.141,0.086,south-southeast,2.2,No
2020/02/14,14:00,0.182,0.167,0.278,0.258,0.256,0.141,0.086,south-southeast,1.9,No
2020/02/14,14:10,0.181,0.167,0.279,0.257,0.254,0.141,0.086,south-southeast,2.5,No
2020/02/14,14:20,0.181,0.167,0.278,0.258,0.256,0.140,0.086,south-southeast,1.1,No
2020/02/14,14:30,0.181,0.168,0.278,0.259,0.253,0.140,0.087,southeast,1.0,No
2020/02/14,14:40,0.181,0.168,0.278,0.260,0.255,0.140,0.086,south-southeast,3.5,No
2020/02/14,14:50,0.182,0.166,0.278,0.258,0.254,0.142,0.086,south,2.6,No
2020/02/14,15:00,0.182,0.167,0.280,0.259,0.254,0.141,0.086,south-southeast,4.3,No
2020/02/14,15:10,0.182,0.167,0.278,0.258,0.254,0.142,0.086,south-southeast,6.6,No
2020/02/14,15:20,0.181,0.168,0.279,0.259,0.254,0.140,0.086,south-southeast,7.9,No
2020/02/14,15:30,0.182,0.167,0.279,0.259,0.256,0.140,0.086,south-southeast,7.4,No
2020/02/14,15:40,0.181,0.167,0.278,0.257,0.252,0.141,0.086,south-southeast,6.6,No
2020/02/14,15:50,0.183,0.167,0.279,0.259,0.254,0.141,0.086,south-southeast,5.8,No
2020/02/14,16:00,0.183,0.167,0.278,0.258,0.256,0.141,0.086,south-southeast,5.4,No
2020/02/14,16:10,0.182,0.167,0.279,0.258,0.255,0.140,0.087,south,5.0,No
2020/02/14,16:20,0.182,0.167,0.278,0.258,0.255,0.141,0.086,south,5.9,No
2020/02/14,16:30,0.182,0.168,0.279,0.258,0.253,0.140,0.086,south,5.1,No
2020/02/14,16:40,0.183,0.167,0.278,0.258,0.256,0.140,0.086,south,5.7,No
2020/02/14,16:50,0.182,0.167,0.278,0.259,0.253,0.141,0.086,south,7.0,No
2020/02/14,17:00,0.183,0.168,0.280,0.259,0.255,0.141,0.085,south,7.4,No
2020/02/14,17:10,0.182,0.167,0.278,0.259,0.254,0.140,0.086,south,6.7,No
2020/02/14,17:20,0.182,0.168,0.277,0.259,0.255,0.140,0.087,south,4.8,No
2020/02/14,17:30,0.183,0.168,0.277,0.259,0.256,0.141,0.086,south,5.4,No
2020/02/14,17:40,0.182,0.167,0.278,0.259,0.254,0.141,0.086,south,5.1,No
2020/02/14,17:50,0.183,0.168,0.278,0.258,0.256,0.141,0.087,south,5.3,No
2020/02/14,18:00,0.182,0.168,0.279,0.260,0.254,0.141,0.087,south,4.0,No
2020/02/14,18:10,0.182,0.166,0.279,0.258,0.255,0.141,0.087,south,3.0,No
2020/02/14,18:20,0.183,0.168,0.276,0.258,0.255,0.142,0.086,south,3.1,No
2020/02/14,18:30,0.182,0.168,0.278,0.260,0.254,0.140,0.086,south-southwest,2.8,No
2020/02/14,18:40,0.182,0.167,0.278,0.258,0.255,0.141,0.087,south,3.4,No
2020/02/14,18:50,0.183,0.168,0.279,0.259,0.255,0.141,0.086,south-southwest,4.4,No
2020/02/14,19:00,0.182,0.167,0.278,0.259,0.256,0.141,0.086,south-southwest,4.5,No
2020/02/14,19:10,0.183,0.167,0.278,0.260,0.255,0.142,0.087,south,4.3,No
2020/02/14,19:20,0.181,0.167,0.277,0.259,0.253,0.140,0.087,south-southwest,4.9,No
2020/02/14,19:30,0.183,0.167,0.279,0.258,0.256,0.141,0.086,south-southwest,4.1,No
2020/02/14,19:40,0.182,0.168,0.279,0.260,0.255,0.141,0.086,south-southwest,4.3,No
2020/02/14,19:50,0.182,0.168,0.279,0.260,0.256,0.142,0.086,south-southwest,4.2,No
2020/02/14,20:00,0.183,0.168,0.279,0.259,0.255,0.142,0.086,south-southwest,3.7,No
2020/02/14,20:10,0.182,0.168,0.277,0.258,0.254,0.141,0.086,south-southwest,3.8,No
2020/02/14,20:20,0.181,0.168,0.279,0.258,0.255,0.142,0.087,south-southwest,4.2,No
2020/02/14,20:30,0.183,0.168,0.280,0.258,0.254,0.142,0.087,south-southwest,4.1,No
2020/02/14,20:40,0.183,0.168,0.279,0.260,0.255,0.142,0.086,south-southwest,5.2,No
2020/02/14,20:50,0.182,0.167,0.280,0.259,0.256,0.141,0.086,south-southwest,5.4,No
2020/02/14,21:00,0.183,0.167,0.279,0.259,0.254,0.141,0.087,south-southwest,3.8,No
2020/02/14,21:10,0.183,0.167,0.279,0.260,0.255,0.141,0.086,west-southwest,1.9,No
2020/02/14,21:20,0.182,0.170,0.280,0.260,0.255,0.141,0.087,west-northwest,1.5,No
2020/02/14,21:30,0.183,0.168,0.278,0.258,0.255,0.141,0.087,northwest,1.5,No
2020/02/14,21:40,0.182,0.169,0.279,0.259,0.258,0.142,0.087,north-northwest,3.2,No
2020/02/14,21:50,0.183,0.168,0.280,0.260,0.255,0.142,0.087,northwest,3.6,No
2020/02/14,22:00,0.184,0.169,0.280,0.259,0.253,0.142,0.086,west,4.9,No
2020/02/14,22:10,0.182,0.169,0.278,0.260,0.255,0.141,0.087,west,5.4,No
2020/02/14,22:20,0.183,0.169,0.279,0.260,0.254,0.142,0.087,west,5.6,No
2020/02/14,22:30,0.183,0.167,0.280,0.260,0.255,0.142,0.087,west,7.3,No
2020/02/14,22:40,0.182,0.168,0.279,0.258,0.255,0.141,0.087,west-northwest,6.2,No
2020/02/14,22:50,0.183,0.168,0.278,0.260,0.254,0.141,0.086,west-northwest,5.7,No
2020/02/14,23:00,0.183,0.167,0.280,0.260,0.255,0.141,0.087,west-northwest,4.0,No
2020/02/14,23:10,0.182,0.169,0.279,0.259,0.256,0.141,0.087,west-northwest,4.4,No
2020/02/14,23:20,0.182,0.169,0.280,0.260,0.255,0.142,0.087,northwest,5.5,No
2020/02/14,23:30,0.183,0.169,0.280,0.260,0.254,0.142,0.087,northwest,5.0,No
2020/02/14,23:40,0.183,0.169,0.279,0.259,0.256,0.141,0.086,west-northwest,4.7,No
2020/02/14,23:50,0.183,0.168,0.278,0.259,0.255,0.141,0.087,west-northwest,4.6,No
